Time,TemperatureF,DewpointF,PressureIn,WindDirection,WindDirectionDegrees,WindSpeedMPH,WindSpeedGustMPH,Humidity,HourlyPrecipIn,Conditions,Clouds,dailyrainin,SolarRadiationWatts/m^2,SoftwareType,DateUTC
2013-03-05 00:00:00,40.5,31.1,29.85,NNW,338,12.1,12.1,69,0.00,CLR,OVC,0.00,0.0,WeatherDisplay:10.37,2013-03-05 06:00:00,
2013-03-05 00:05:00,40.1,31.1,29.85,NW,315,11.5,11.5,70,0.00,CLR,OVC,0.00,0.0,WeatherDisplay:10.37,2013-03-05 06:05:00,
2013-03-05 00:10:00,39.9,30.6,29.85,NNW,338,13.8,13.8,69,0.00,CLR,OVC,0.00,0.0,WeatherDisplay:10.37,2013-03-05 06:10:00,
2013-03-05 00:15:00,39.9,30.6,29.88,NNW,338,12.7,12.7,69,0.00,CLR,OVC,0.00,0.0,WeatherDisplay:10.37,2013-03-05 06:15:00,
2013-03-05 00:20:00,39.7,30.4,29.88,North,0,12.3,12.3,69,0.00,CLR,OVC,0.00,0.0,WeatherDisplay:10.37,2013-03-05 06:20:00,
2013-03-05 00:25:00,39.7,30.4,29.88,North,0,15.0,15.0,69,0.00,CLR,OVC,0.00,0.0,WeatherDisplay:10.37,2013-03-05 06:25:00,
2013-03-05 00:30:00,39.6,30.2,29.85,North,0,12.7,12.7,69,0.00,CLR,OVC,0.00,0.0,WeatherDisplay:10.37,2013-03-05 06:30:00,
2013-03-05 00:35:00,39.4,30.1,29.85,NNW,338,9.2,9.2,69,0.00,CLR,OVC,0.00,0.0,WeatherDisplay:10.37,2013-03-05 06:35:00,
2013-03-05 00:40:00,39.4,30.1,29.85,NNW,338,10.4,10.4,69,0.00,CLR,OVC,0.00,0.0,WeatherDisplay:10.37,2013-03-05 06:40:00,
2013-03-05 00:45:00,39.4,30.4,29.88,WNW,292,8.5,8.5,70,0.00,CLR,OVC,0.00,0.0,WeatherDisplay:10.37,2013-03-05 06:45:00,
2013-03-05 00:50:00,39.6,30.6,29.88,NNW,338,12.7,12.7,70,0.00,CLR,OVC,0.00,0.0,WeatherDisplay:10.37,2013-03-05 06:50:00,
2013-03-05 00:55:00,39.7,30.8,29.88,NNW,338,12.7,12.7,70,0.00,CLR,OVC,0.00,0.0,WeatherDisplay:10.37,2013-03-05 06:55:00,
2013-03-05 01:00:00,39.7,30.8,29.88,NW,315,12.1,12.1,70,0.00,CLR,OVC,0.00,0.0,WeatherDisplay:10.37,2013-03-05 07:00:00,
2013-03-05 01:05:00,39.7,30.8,29.88,NNW,338,17.3,17.3,70,0.00,CLR,OVC,0.00,0.0,WeatherDisplay:10.37,2013-03-05 07:05:00,
2013-03-05 01:10:00,39.7,30.8,29.88,NNW,338,15.0,15.0,70,0.00,CLR,OVC,0.00,0.0,WeatherDisplay:10.37,2013-03-05 07:10:00,
2013-03-05 01:15:00,39.7,31.1,29.91,NNW,338,8.1,8.1,71,0.00,CLR,OVC,0.00,0.0,WeatherDisplay:10.37,2013-03-05 07:15:00,
2013-03-05 01:20:00,39.7,31.4,29.91,North,0,11.5,11.5,72,0.00,CLR,OVC,0.00,0.0,WeatherDisplay:10.37,2013-03-05 07:20:00,
2013-03-05 01:25:00,39.6,31.3,29.91,NNW,338,10.4,10.4,72,0.00,CLR,OVC,0.00,0.0,WeatherDisplay:10.37,2013-03-05 07:25:00,
2013-03-05 01:30:00,39.6,31.3,29.91,NW,315,13.8,13.8,72,0.00,CLR,OVC,0.00,0.0,WeatherDisplay:10.37,2013-03-05 07:30:00,
2013-03-05 01:35:00,39.6,31.3,29.91,North,0,12.7,12.7,72,0.00,CLR,OVC,0.00,0.0,WeatherDisplay:10.37,2013-03-05 07:35:00,
2013-03-05 01:40:00,39.6,31.6,29.91,NNW,338,6.9,6.9,73,0.00,CLR,OVC,0.00,0.0,WeatherDisplay:10.37,2013-03-05 07:40:00,
2013-03-05 01:45:00,39.4,31.8,29.91,NNW,338,10.4,10.4,74,0.00,CLR,OVC,0.00,0.0,WeatherDisplay:10.37,2013-03-05 07:45:00,
2013-03-05 01:50:00,39.4,32.1,29.91,NNW,338,8.1,8.1,75,0.00,CLR,OVC,0.00,0.0,WeatherDisplay:10.37,2013-03-05 07:50:00,
2013-03-05 01:55:00,39.4,32.1,29.91,WNW,292,10.2,10.2,75,0.00,CLR,OVC,0.00,0.0,WeatherDisplay:10.37,2013-03-05 07:55:00,
2013-03-05 02:00:00,39.4,32.4,29.94,NNW,338,12.7,12.7,76,0.00,CLR,OVC,0.00,0.0,WeatherDisplay:10.37,2013-03-05 08:00:00,
2013-03-05 02:05:00,39.2,32.6,29.94,NW,315,13.2,13.2,77,0.00,CLR,OVC,0.00,0.0,WeatherDisplay:10.37,2013-03-05 08:05:00,
2013-03-05 02:10:00,39.0,32.7,29.94,NNW,338,8.1,8.1,78,0.00,CLR,OVC,0.00,0.0,WeatherDisplay:10.37,2013-03-05 08:10:00,
2013-03-05 02:15:00,38.8,32.9,29.94,NNW,338,17.3,17.3,79,0.00,CLR,OVC,0.00,0.0,WeatherDisplay:10.37,2013-03-05 08:15:00,
2013-03-05 02:20:00,38.7,33.0,29.94,NW,315,16.1,16.1,80,0.00,CLR,OVC,0.00,0.0,WeatherDisplay:10.37,2013-03-05 08:20:00,
2013-03-05 02:25:00,38.5,33.5,29.94,WNW,292,15.6,15.6,82,0.00,CLR,OVC,0.00,0.0,WeatherDisplay:10.37,2013-03-05 08:25:00,
2013-03-05 02:30:00,38.5,33.8,29.94,WNW,292,11.5,11.5,83,0.00,CLR,OVC,0.00,0.0,WeatherDisplay:10.37,2013-03-05 08:30:00,
2013-03-05 02:35:00,37.9,33.5,29.94,NNW,338,15.0,15.0,84,0.00,CLR,OVC,0.00,0.0,WeatherDisplay:10.37,2013-03-05 08:35:00,
2013-03-05 02:40:00,37.6,34.3,29.94,NNW,338,13.8,13.8,88,0.00,CLR,OVC,0.00,0.0,WeatherDisplay:10.37,2013-03-05 08:40:00,
2013-03-05 02:45:00,37.4,34.7,29.94,NNW,338,10.4,10.5,90,0.00,CLR,OVC,0.00,0.0,WeatherDisplay:10.37,2013-03-05 08:45:00,
2013-03-05 02:50:00,37.2,35.4,29.94,WNW,292,10.4,10.4,93,0.00,CLR,OVC,0.00,0.0,WeatherDisplay:10.37,2013-03-05 08:50:00,
2013-03-05 02:55:00,37.2,35.4,29.94,WNW,292,11.5,11.5,93,0.00,CLR,OVC,0.00,0.0,WeatherDisplay:10.37,2013-03-05 08:55:00,
2013-03-05 03:00:00,36.9,35.0,29.97,WNW,292,12.7,12.7,93,0.00,CLR,OVC,0.00,0.0,WeatherDisplay:10.37,2013-03-05 09:00:00,
2013-03-05 03:05:00,36.7,35.1,29.97,NW,315,17.6,17.6,94,0.00,CLR,OVC,0.00,0.0,WeatherDisplay:10.37,2013-03-05 09:05:00,
2013-03-05 03:10:00,36.1,34.6,29.97,NW,315,13.8,13.8,94,0.00,CLR,OVC,0.00,0.0,WeatherDisplay:10.37,2013-03-05 09:10:00,
2013-03-05 03:15:00,35.6,34.3,29.97,WNW,292,12.7,12.7,95,0.00,CLR,OVC,0.00,0.0,WeatherDisplay:10.37,2013-03-05 09:15:00,
2013-03-05 03:20:00,35.4,34.4,29.97,NNW,338,11.5,11.5,96,0.00,CLR,OVC,0.00,0.0,WeatherDisplay:10.37,2013-03-05 09:20:00,
2013-03-05 03:25:00,35.2,35.0,29.97,NW,315,15.0,15.0,99,0.00,CLR,OVC,0.00,0.0,WeatherDisplay:10.37,2013-03-05 09:25:00,
2013-03-05 03:30:00,35.1,35.1,30.00,WNW,292,11.5,11.5,100,0.00,CLR,OVC,0.00,0.0,WeatherDisplay:10.37,2013-03-05 09:30:00,
2013-03-05 03:35:00,35.1,35.1,30.00,NW,315,10.4,10.4,100,0.00,CLR,OVC,0.00,0.0,WeatherDisplay:10.37,2013-03-05 09:35:00,
2013-03-05 03:41:00,35.1,35.1,30.00,WNW,292,16.3,16.3,100,0.00,CLR,OVC,0.00,0.0,WeatherDisplay:10.37,2013-03-05 09:41:00,
2013-03-05 03:46:00,34.7,34.7,30.00,WNW,292,15.0,15.0,100,0.00,CLR,OVC,0.00,0.0,WeatherDisplay:10.37,2013-03-05 09:46:00,
2013-03-05 03:50:00,34.5,34.5,30.00,WNW,292,13.8,13.8,100,0.00,CLR,OVC,0.00,0.0,WeatherDisplay:10.37,2013-03-05 09:50:00,
2013-03-05 03:56:00,34.3,34.3,30.00,WNW,292,12.7,12.7,100,0.00,CLR,OVC,0.00,0.0,WeatherDisplay:10.37,2013-03-05 09:56:00,
2013-03-05 04:01:00,34.3,34.3,29.97,WNW,292,10.5,10.5,100,0.00,CLR,OVC,0.00,0.0,WeatherDisplay:10.37,2013-03-05 10:01:00,
2013-03-05 04:06:00,34.2,34.2,29.97,WNW,292,11.5,11.5,100,0.00,CLR,OVC,0.00,0.0,WeatherDisplay:10.37,2013-03-05 10:06:00,
2013-03-05 04:11:00,34.2,34.2,29.97,WNW,292,13.8,13.8,100,0.00,CLR,OVC,0.00,0.0,WeatherDisplay:10.37,2013-03-05 10:11:00,
2013-03-05 04:16:00,34.3,34.3,29.97,WNW,292,10.4,10.4,100,0.00,CLR,OVC,0.00,0.0,WeatherDisplay:10.37,2013-03-05 10:16:00,
2013-03-05 04:21:00,34.3,34.3,29.97,NW,315,11.5,11.5,100,0.00,CLR,OVC,0.00,0.0,WeatherDisplay:10.37,2013-03-05 10:21:00,
2013-03-05 04:26:00,34.3,34.3,29.97,WNW,292,12.3,12.3,100,0.00,CLR,OVC,0.00,0.0,WeatherDisplay:10.37,2013-03-05 10:26:00,
2013-03-05 04:31:00,34.3,34.3,30.00,WNW,292,10.9,11.8,100,0.00,CLR,OVC,0.00,0.0,WeatherDisplay:10.37,2013-03-05 10:31:00,
2013-03-05 04:36:00,34.3,34.3,30.00,NW,315,9.2,9.2,100,0.00,CLR,OVC,0.00,0.0,WeatherDisplay:10.37,2013-03-05 10:36:00,
2013-03-05 04:41:00,34.3,34.3,30.00,NNW,338,9.2,9.2,100,0.00,CLR,OVC,0.00,0.0,WeatherDisplay:10.37,2013-03-05 10:41:00,
2013-03-05 04:46:00,34.3,34.3,30.00,NNW,338,6.9,6.9,100,0.00,CLR,OVC,0.00,0.0,WeatherDisplay:10.37,2013-03-05 10:46:00,
2013-03-05 04:51:00,34.3,34.3,30.00,WNW,292,9.2,9.2,100,0.00,CLR,OVC,0.00,0.0,WeatherDisplay:10.37,2013-03-05 10:51:00,
2013-03-05 04:56:00,34.3,34.3,30.00,WNW,292,11.8,11.8,100,0.00,CLR,OVC,0.00,0.0,WeatherDisplay:10.37,2013-03-05 10:56:00,
2013-03-05 05:01:00,34.3,34.3,29.97,WNW,292,13.8,13.8,100,0.00,CLR,OVC,0.00,0.0,WeatherDisplay:10.37,2013-03-05 11:01:00,
2013-03-05 05:06:00,34.3,34.3,29.97,WNW,292,13.8,13.8,100,0.00,CLR,OVC,0.00,0.0,WeatherDisplay:10.37,2013-03-05 11:06:00,
2013-03-05 05:11:00,34.5,34.5,29.97,WNW,292,13.0,13.0,100,0.00,CLR,OVC,0.00,0.0,WeatherDisplay:10.37,2013-03-05 11:11:00,
2013-03-05 05:16:00,34.5,34.5,30.03,WNW,292,11.5,14.3,100,0.00,CLR,OVC,0.00,0.0,WeatherDisplay:10.37,2013-03-05 11:16:00,
2013-03-05 05:21:00,34.5,34.5,30.03,WNW,292,18.4,18.4,100,0.00,CLR,OVC,0.00,0.0,WeatherDisplay:10.37,2013-03-05 11:21:00,
2013-03-05 05:26:00,34.5,34.5,30.03,NW,315,15.0,15.0,100,0.00,CLR,OVC,0.00,0.0,WeatherDisplay:10.37,2013-03-05 11:26:00,
2013-03-05 05:31:00,34.7,34.7,30.03,WNW,292,12.7,12.7,100,0.00,CLR,OVC,0.00,0.0,WeatherDisplay:10.37,2013-03-05 11:31:00,
2013-03-05 05:36:00,34.7,34.7,30.03,NNW,338,13.8,13.8,100,0.00,CLR,OVC,0.00,0.0,WeatherDisplay:10.37,2013-03-05 11:36:00,
2013-03-05 05:41:00,34.9,34.9,30.03,WNW,292,16.1,16.1,100,0.00,CLR,OVC,0.00,0.0,WeatherDisplay:10.37,2013-03-05 11:41:00,
2013-03-05 05:46:00,34.9,34.9,30.03,WNW,292,13.2,13.2,100,0.00,CLR,OVC,0.00,0.0,WeatherDisplay:10.37,2013-03-05 11:46:00,
2013-03-05 05:51:00,35.1,34.0,30.03,NNW,338,15.0,15.0,96,0.00,CLR,OVC,0.00,0.0,WeatherDisplay:10.37,2013-03-05 11:51:00,
2013-03-05 05:56:00,35.2,34.2,30.03,WNW,292,14.5,14.5,96,0.00,CLR,OVC,0.00,0.0,WeatherDisplay:10.37,2013-03-05 11:56:00,
2013-03-05 06:01:00,35.2,33.7,30.06,WNW,292,17.3,17.3,94,0.00,CLR,OVC,0.00,0.0,WeatherDisplay:10.37,2013-03-05 12:01:00,
2013-03-05 06:06:00,35.2,33.7,30.06,NNW,338,11.5,11.5,94,0.00,CLR,OVC,0.00,0.0,WeatherDisplay:10.37,2013-03-05 12:06:00,
2013-03-05 06:11:00,35.2,34.0,30.06,NNW,338,10.0,10.0,95,0.00,CLR,OVC,0.00,0.0,WeatherDisplay:10.37,2013-03-05 12:11:00,
2013-03-05 06:16:00,35.2,33.4,30.09,NNW,338,9.2,9.2,93,0.00,CLR,OVC,0.00,0.0,WeatherDisplay:10.37,2013-03-05 12:16:00,
2013-03-05 06:21:00,35.2,33.1,30.09,WNW,292,13.8,13.8,92,0.00,CLR,OVC,0.00,0.0,WeatherDisplay:10.37,2013-03-05 12:21:00,
2013-03-05 06:26:00,35.4,33.3,30.09,WNW,292,13.8,13.8,92,0.00,CLR,OVC,0.00,0.0,WeatherDisplay:10.37,2013-03-05 12:26:00,
2013-03-05 06:31:00,35.2,32.6,30.09,WNW,292,18.4,18.4,90,0.00,CLR,OVC,0.00,0.0,WeatherDisplay:10.37,2013-03-05 12:31:00,
2013-03-05 06:36:00,35.1,31.6,30.09,WNW,292,15.0,15.0,87,0.00,CLR,OVC,0.00,0.0,WeatherDisplay:10.37,2013-03-05 12:36:00,
2013-03-05 06:41:00,34.9,30.5,30.09,NW,315,16.1,16.1,84,0.00,CLR,OVC,0.00,0.0,WeatherDisplay:10.37,2013-03-05 12:41:00,
2013-03-05 06:46:00,34.7,30.1,30.06,NW,315,12.1,12.1,83,0.00,CLR,OVC,0.00,0.0,WeatherDisplay:10.37,2013-03-05 12:46:00,
2013-03-05 06:51:00,34.7,29.8,30.06,WNW,292,12.7,12.7,82,0.00,CLR,OVC,0.00,0.0,WeatherDisplay:10.37,2013-03-05 12:51:00,
2013-03-05 06:56:00,34.5,29.3,30.06,NW,315,12.7,12.7,81,0.00,CLR,OVC,0.00,0.0,WeatherDisplay:10.37,2013-03-05 12:56:00,
2013-03-05 07:01:00,34.5,29.0,30.06,WNW,292,12.8,12.8,80,0.00,CLR,OVC,0.00,0.0,WeatherDisplay:10.37,2013-03-05 13:01:00,
2013-03-05 07:06:00,34.3,28.2,30.06,WNW,292,12.3,12.3,78,0.00,CLR,OVC,0.00,0.0,WeatherDisplay:10.37,2013-03-05 13:06:00,
2013-03-05 07:11:00,34.0,27.8,30.06,WNW,292,17.3,17.3,78,0.00,CLR,OVC,0.00,0.0,WeatherDisplay:10.37,2013-03-05 13:11:00,
2013-03-05 07:16:00,34.3,27.6,30.06,WNW,292,12.7,12.7,76,0.00,CLR,OVC,0.00,0.0,WeatherDisplay:10.37,2013-03-05 13:16:00,
2013-03-05 07:21:00,34.5,28.1,30.06,WNW,292,10.4,10.4,77,0.00,CLR,OVC,0.00,0.0,WeatherDisplay:10.37,2013-03-05 13:21:00,
2013-03-05 07:26:00,34.9,28.4,30.06,WNW,292,11.5,11.5,77,0.00,CLR,OVC,0.00,0.0,WeatherDisplay:10.37,2013-03-05 13:26:00,
2013-03-05 07:31:00,35.1,27.6,30.06,NNW,338,12.8,12.8,74,0.00,CLR,OVC,0.00,0.0,WeatherDisplay:10.37,2013-03-05 13:31:00,
2013-03-05 07:36:00,34.7,26.6,30.06,WNW,292,15.0,15.0,72,0.00,CLR,OVC,0.00,0.0,WeatherDisplay:10.37,2013-03-05 13:36:00,
2013-03-05 07:41:00,34.5,26.4,30.06,WNW,292,16.1,16.1,72,0.00,CLR,OVC,0.00,0.0,WeatherDisplay:10.37,2013-03-05 13:41:00,
2013-03-05 07:46:00,34.7,25.9,30.06,WNW,292,15.6,15.6,70,0.00,CLR,OVC,0.00,0.0,WeatherDisplay:10.37,2013-03-05 13:46:00,
2013-03-05 07:51:00,34.3,24.9,30.06,WNW,292,21.9,21.9,68,0.00,CLR,OVC,0.00,0.0,WeatherDisplay:10.37,2013-03-05 13:51:00,
2013-03-05 07:56:00,34.3,23.8,30.09,NNW,338,25.3,25.3,65,0.00,CLR,OVC,0.00,0.0,WeatherDisplay:10.37,2013-03-05 13:56:00,
2013-03-05 08:01:00,33.8,22.1,30.09,WNW,292,23.0,23.0,62,0.00,CLR,OVC,0.00,0.0,WeatherDisplay:10.37,2013-03-05 14:01:00,
2013-03-05 08:06:00,34.0,21.9,30.09,NW,315,19.6,19.6,61,0.00,CLR,OVC,0.00,0.0,WeatherDisplay:10.37,2013-03-05 14:06:00,
2013-03-05 08:11:00,34.5,22.8,30.09,WNW,292,16.1,16.1,62,0.00,CLR,OVC,0.00,0.0,WeatherDisplay:10.37,2013-03-05 14:11:00,
2013-03-05 08:16:00,34.3,22.3,30.09,WNW,292,17.3,17.3,61,0.00,CLR,OVC,0.00,0.0,WeatherDisplay:10.37,2013-03-05 14:16:00,
2013-03-05 08:21:00,34.2,21.7,30.09,WNW,292,25.3,25.3,60,0.00,CLR,OVC,0.00,0.0,WeatherDisplay:10.37,2013-03-05 14:21:00,
2013-03-05 08:26:00,34.3,21.9,30.09,WNW,292,20.7,20.7,60,0.00,CLR,OVC,0.00,0.0,WeatherDisplay:10.37,2013-03-05 14:26:00,
2013-03-05 08:31:00,34.3,21.9,30.09,WNW,292,20.7,20.7,60,0.00,CLR,OVC,0.00,0.0,WeatherDisplay:10.37,2013-03-05 14:31:00,
2013-03-05 08:36:00,34.3,21.9,30.09,NW,315,18.7,18.7,60,0.00,CLR,OVC,0.00,0.0,WeatherDisplay:10.37,2013-03-05 14:36:00,
2013-03-05 08:41:00,34.3,21.9,30.12,NNW,338,19.6,19.6,60,0.00,CLR,OVC,0.00,0.0,WeatherDisplay:10.37,2013-03-05 14:41:00,
2013-03-05 08:46:00,34.7,21.8,30.12,NW,315,18.4,18.4,59,0.00,CLR,OVC,0.00,0.0,WeatherDisplay:10.37,2013-03-05 14:46:00,
2013-03-05 08:51:00,34.2,21.7,30.12,WNW,292,24.2,24.2,60,0.00,CLR,OVC,0.00,0.0,WeatherDisplay:10.37,2013-03-05 14:51:00,
2013-03-05 08:56:00,34.5,22.1,30.12,NW,315,18.4,18.4,60,0.00,CLR,OVC,0.00,0.0,WeatherDisplay:10.37,2013-03-05 14:56:00,
2013-03-05 09:01:00,34.5,21.7,30.12,NW,315,20.7,20.7,59,0.00,CLR,OVC,0.00,0.0,WeatherDisplay:10.37,2013-03-05 15:01:00,
2013-03-05 09:06:00,34.2,21.3,30.12,NNW,338,19.7,19.7,59,0.00,CLR,OVC,0.00,0.0,WeatherDisplay:10.37,2013-03-05 15:06:00,
2013-03-05 09:11:00,34.3,21.5,30.09,NNW,338,18.5,18.5,59,0.00,CLR,OVC,0.00,100.0,WeatherDisplay:10.37,2013-03-05 15:11:00,
2013-03-05 09:16:00,34.5,21.7,30.09,WNW,292,26.5,26.5,59,0.00,CLR,OVC,0.00,100.0,WeatherDisplay:10.37,2013-03-05 15:16:00,
2013-03-05 09:21:00,34.5,21.2,30.09,WNW,292,20.7,20.7,58,0.00,CLR,OVC,0.00,100.0,WeatherDisplay:10.37,2013-03-05 15:21:00,
2013-03-05 09:26:00,34.7,21.8,30.12,WNW,292,19.6,19.6,59,0.00,CLR,OVC,0.00,100.0,WeatherDisplay:10.37,2013-03-05 15:26:00,
2013-03-05 09:31:00,35.1,21.8,30.12,WNW,292,21.9,21.9,58,0.00,CLR,OVC,0.00,100.0,WeatherDisplay:10.37,2013-03-05 15:31:00,
2013-03-05 09:36:00,34.7,21.0,30.12,WNW,292,20.7,20.7,57,0.00,CLR,OVC,0.00,100.0,WeatherDisplay:10.37,2013-03-05 15:36:00,
2013-03-05 09:41:00,34.7,20.6,30.12,WNW,292,23.0,23.0,56,0.00,CLR,OVC,0.00,100.0,WeatherDisplay:10.37,2013-03-05 15:41:00,
2013-03-05 09:46:00,34.7,20.6,30.12,NNW,338,20.7,20.7,56,0.00,CLR,OVC,0.00,100.0,WeatherDisplay:10.37,2013-03-05 15:46:00,
2013-03-05 09:51:00,35.1,20.5,30.12,NNW,338,19.7,19.7,55,0.00,CLR,OVC,0.00,100.0,WeatherDisplay:10.37,2013-03-05 15:51:00,
2013-03-05 09:56:00,35.1,20.9,30.15,NNW,338,19.6,19.6,56,0.00,CLR,OVC,0.00,100.0,WeatherDisplay:10.37,2013-03-05 15:56:00,
2013-03-05 10:01:00,34.7,20.2,30.15,NNW,338,24.2,24.2,55,0.00,CLR,OVC,0.00,200.0,WeatherDisplay:10.37,2013-03-05 16:01:00,
2013-03-05 10:06:00,34.9,20.3,30.15,WNW,292,20.7,20.7,55,0.00,CLR,OVC,0.00,200.0,WeatherDisplay:10.37,2013-03-05 16:06:00,
2013-03-05 10:11:00,35.6,21.0,30.15,WNW,292,23.0,23.0,55,0.00,CLR,OVC,0.00,200.0,WeatherDisplay:10.37,2013-03-05 16:11:00,
2013-03-05 10:17:00,35.6,20.6,30.15,NW,315,17.8,17.8,54,0.00,CLR,OVC,0.00,200.0,WeatherDisplay:10.37,2013-03-05 16:17:00,
2013-03-05 10:22:00,35.4,20.4,30.15,WNW,292,23.0,23.0,54,0.00,CLR,OVC,0.00,200.0,WeatherDisplay:10.37,2013-03-05 16:22:00,
2013-03-05 10:27:00,35.6,21.0,30.15,WNW,292,23.0,23.0,55,0.00,CLR,OVC,0.00,200.0,WeatherDisplay:10.37,2013-03-05 16:27:00,
2013-03-05 10:32:00,35.2,20.2,30.15,West,270,23.2,23.2,54,0.00,CLR,OVC,0.00,200.0,WeatherDisplay:10.37,2013-03-05 16:32:00,
2013-03-05 10:37:00,36.0,21.8,30.15,WNW,292,18.4,18.4,56,0.00,CLR,OVC,0.00,300.0,WeatherDisplay:10.37,2013-03-05 16:37:00,
2013-03-05 10:42:00,36.5,21.8,30.15,NW,315,19.6,19.6,55,0.00,CLR,OVC,0.00,300.0,WeatherDisplay:10.37,2013-03-05 16:42:00,
2013-03-05 10:47:00,36.5,21.8,30.15,West,270,17.8,17.8,55,0.00,CLR,OVC,0.00,300.0,WeatherDisplay:10.37,2013-03-05 16:47:00,
2013-03-05 10:52:00,36.0,20.9,30.15,WNW,292,23.7,23.7,54,0.00,CLR,OVC,0.00,300.0,WeatherDisplay:10.37,2013-03-05 16:52:00,
2013-03-05 10:57:00,36.9,22.2,30.18,NNW,338,21.9,21.9,55,0.00,CLR,OVC,0.00,300.0,WeatherDisplay:10.37,2013-03-05 16:57:00,
2013-03-05 11:02:00,36.5,21.0,30.18,NNW,338,27.6,27.6,53,0.00,CLR,OVC,0.00,300.0,WeatherDisplay:10.37,2013-03-05 17:02:00,
2013-03-05 11:07:00,37.4,22.7,30.18,WNW,292,15.0,15.0,55,0.00,CLR,OVC,0.00,300.0,WeatherDisplay:10.37,2013-03-05 17:07:00,
2013-03-05 11:12:00,37.2,22.1,30.18,WNW,292,23.0,23.0,54,0.00,CLR,OVC,0.00,300.0,WeatherDisplay:10.37,2013-03-05 17:12:00,
2013-03-05 11:17:00,37.6,22.4,30.18,NW,315,15.9,16.8,54,0.00,CLR,OVC,0.00,300.0,WeatherDisplay:10.37,2013-03-05 17:17:00,
2013-03-05 11:22:00,37.4,22.3,30.18,WNW,292,15.0,15.6,54,0.00,CLR,OVC,0.00,300.0,WeatherDisplay:10.37,2013-03-05 17:22:00,
2013-03-05 11:27:00,37.2,21.6,30.18,WNW,292,25.3,25.3,53,0.00,CLR,OVC,0.00,300.0,WeatherDisplay:10.37,2013-03-05 17:27:00,
2013-03-05 11:32:00,38.1,22.0,30.18,NW,315,21.9,21.9,52,0.00,CLR,OVC,0.00,300.0,WeatherDisplay:10.37,2013-03-05 17:32:00,
2013-03-05 11:37:00,37.4,21.8,30.18,WNW,292,18.4,18.4,53,0.00,CLR,OVC,0.00,300.0,WeatherDisplay:10.37,2013-03-05 17:37:00,
2013-03-05 11:42:00,38.3,22.6,30.18,WNW,292,16.1,16.1,53,0.00,CLR,OVC,0.00,300.0,WeatherDisplay:10.37,2013-03-05 17:42:00,
2013-03-05 11:47:00,38.5,22.8,30.18,WNW,292,15.0,15.0,53,0.00,CLR,OVC,0.00,400.0,WeatherDisplay:10.37,2013-03-05 17:47:00,
2013-03-05 11:52:00,38.5,22.4,30.18,WNW,292,21.9,21.9,52,0.00,CLR,OVC,0.00,400.0,WeatherDisplay:10.37,2013-03-05 17:52:00,
2013-03-05 11:57:00,37.8,21.7,30.18,West,270,21.9,21.9,52,0.00,CLR,OVC,0.00,400.0,WeatherDisplay:10.37,2013-03-05 17:57:00,
2013-03-05 12:02:00,37.6,21.5,30.18,WNW,292,26.5,26.5,52,0.00,CLR,OVC,0.00,400.0,WeatherDisplay:10.37,2013-03-05 18:02:00,
2013-03-05 12:07:00,37.9,21.9,30.18,WNW,292,21.9,21.9,52,0.00,CLR,OVC,0.00,400.0,WeatherDisplay:10.37,2013-03-05 18:07:00,
2013-03-05 12:12:00,38.1,22.5,30.18,WNW,292,24.2,24.2,53,0.00,CLR,OVC,0.00,400.0,WeatherDisplay:10.37,2013-03-05 18:12:00,
2013-03-05 12:17:00,38.1,22.0,30.18,WNW,292,19.7,19.7,52,0.00,CLR,OVC,0.00,400.0,WeatherDisplay:10.37,2013-03-05 18:17:00,
2013-03-05 12:22:00,39.2,23.5,30.18,WNW,292,23.0,23.0,53,0.00,CLR,OVC,0.00,400.0,WeatherDisplay:10.37,2013-03-05 18:22:00,
2013-03-05 12:27:00,39.4,23.7,30.18,WNW,292,16.1,16.1,53,0.00,CLR,OVC,0.00,400.0,WeatherDisplay:10.37,2013-03-05 18:27:00,
2013-03-05 12:32:00,39.9,24.2,30.18,WNW,292,17.3,17.3,53,0.00,CLR,OVC,0.00,400.0,WeatherDisplay:10.37,2013-03-05 18:32:00,
2013-03-05 12:37:00,39.6,23.8,30.18,WNW,292,18.4,18.4,53,0.00,CLR,OVC,0.00,400.0,WeatherDisplay:10.37,2013-03-05 18:37:00,
2013-03-05 12:42:00,39.2,23.0,30.18,WNW,292,23.0,23.0,52,0.00,CLR,OVC,0.00,400.0,WeatherDisplay:10.37,2013-03-05 18:42:00,
2013-03-05 12:47:00,39.4,22.7,30.18,NW,315,15.0,15.0,51,0.00,CLR,OVC,0.00,400.0,WeatherDisplay:10.37,2013-03-05 18:47:00,
2013-03-05 12:52:00,40.6,24.8,30.18,WNW,292,12.7,12.7,53,0.00,CLR,OVC,0.00,400.0,WeatherDisplay:10.37,2013-03-05 18:52:00,
2013-03-05 12:57:00,40.5,24.2,30.18,WNW,292,25.1,25.1,52,0.00,CLR,OVC,0.00,400.0,WeatherDisplay:10.37,2013-03-05 18:57:00,
2013-03-05 13:02:00,40.3,24.0,30.18,WNW,292,17.3,17.3,52,0.00,CLR,OVC,0.00,400.0,WeatherDisplay:10.37,2013-03-05 19:02:00,
2013-03-05 13:07:00,40.1,23.9,30.18,WNW,292,23.0,23.0,52,0.00,CLR,OVC,0.00,400.0,WeatherDisplay:10.37,2013-03-05 19:07:00,
2013-03-05 13:12:00,39.9,23.7,30.18,WNW,292,26.5,26.5,52,0.00,CLR,OVC,0.00,400.0,WeatherDisplay:10.37,2013-03-05 19:12:00,
2013-03-05 13:17:00,40.3,24.0,30.18,NW,315,16.1,16.1,52,0.00,CLR,OVC,0.00,400.0,WeatherDisplay:10.37,2013-03-05 19:17:00,
2013-03-05 13:22:00,40.3,24.0,30.18,NNW,338,24.2,24.2,52,0.00,CLR,OVC,0.00,300.0,WeatherDisplay:10.37,2013-03-05 19:22:00,
2013-03-05 13:27:00,40.3,24.0,30.18,West,270,24.2,24.2,52,0.00,CLR,OVC,0.00,100.0,WeatherDisplay:10.37,2013-03-05 19:27:00,
2013-03-05 13:32:00,41.2,24.9,30.18,NW,315,17.3,17.3,52,0.00,CLR,OVC,0.00,300.0,WeatherDisplay:10.37,2013-03-05 19:32:00,
2013-03-05 13:37:00,42.1,25.7,30.18,WNW,292,19.6,19.6,52,0.00,CLR,OVC,0.00,300.0,WeatherDisplay:10.37,2013-03-05 19:37:00,
2013-03-05 13:42:00,41.4,25.0,30.15,WNW,292,20.7,20.7,52,0.00,CLR,OVC,0.00,300.0,WeatherDisplay:10.37,2013-03-05 19:42:00,
2013-03-05 13:47:00,41.5,25.2,30.15,WNW,292,22.3,22.3,52,0.00,CLR,OVC,0.00,300.0,WeatherDisplay:10.37,2013-03-05 19:47:00,
2013-03-05 13:52:00,40.8,24.5,30.15,WNW,292,21.9,21.9,52,0.00,CLR,OVC,0.00,300.0,WeatherDisplay:10.37,2013-03-05 19:52:00,
2013-03-05 13:57:00,41.5,24.7,30.15,WNW,292,23.2,23.2,51,0.00,CLR,OVC,0.00,300.0,WeatherDisplay:10.37,2013-03-05 19:57:00,
2013-03-05 14:02:00,42.1,25.7,30.15,NNW,338,24.2,24.2,52,0.00,CLR,OVC,0.00,300.0,WeatherDisplay:10.37,2013-03-05 20:02:00,
2013-03-05 14:07:00,41.7,24.9,30.15,WNW,292,24.2,24.2,51,0.00,CLR,OVC,0.00,300.0,WeatherDisplay:10.37,2013-03-05 20:07:00,
2013-03-05 14:12:00,41.7,24.9,30.15,NW,315,21.9,21.9,51,0.00,CLR,OVC,0.00,300.0,WeatherDisplay:10.37,2013-03-05 20:12:00,
2013-03-05 14:17:00,43.3,26.9,30.15,NW,315,15.0,15.0,52,0.00,CLR,OVC,0.00,300.0,WeatherDisplay:10.37,2013-03-05 20:17:00,
2013-03-05 14:22:00,44.1,27.1,30.15,NW,315,13.8,13.8,51,0.00,CLR,OVC,0.00,300.0,WeatherDisplay:10.37,2013-03-05 20:22:00,
2013-03-05 14:27:00,42.6,25.7,30.15,WNW,292,16.1,16.1,51,0.00,SCT,OVC,0.00,200.0,WeatherDisplay:10.37,2013-03-05 20:27:00,
2013-03-05 14:32:00,44.2,27.2,30.15,WNW,292,15.0,15.0,51,0.00,SCT,OVC,0.00,200.0,WeatherDisplay:10.37,2013-03-05 20:32:00,
2013-03-05 14:37:00,42.6,25.3,30.15,WSW,248,19.6,19.6,50,0.00,CLR,OVC,0.00,300.0,WeatherDisplay:10.37,2013-03-05 20:37:00,
2013-03-05 14:43:00,43.5,26.6,30.15,WNW,292,19.7,19.7,51,0.00,SCT,OVC,0.00,100.0,WeatherDisplay:10.37,2013-03-05 20:43:00,
2013-03-05 14:48:00,42.6,25.7,30.15,WNW,292,24.2,24.2,51,0.00,SCT,OVC,0.00,200.0,WeatherDisplay:10.37,2013-03-05 20:48:00,
2013-03-05 14:53:00,42.8,25.9,30.15,WNW,292,24.2,24.2,51,0.00,SCT,OVC,0.00,200.0,WeatherDisplay:10.37,2013-03-05 20:53:00,
2013-03-05 14:58:00,43.3,26.4,30.15,WNW,292,21.9,21.9,51,0.00,SCT,OVC,0.00,200.0,WeatherDisplay:10.37,2013-03-05 20:58:00,
2013-03-05 15:03:00,43.5,26.6,30.15,NNW,338,20.7,20.7,51,0.00,SCT,OVC,0.00,200.0,WeatherDisplay:10.37,2013-03-05 21:03:00,
2013-03-05 15:08:00,43.7,26.3,30.15,West,270,18.4,18.4,50,0.00,BKN,OVC,0.00,200.0,WeatherDisplay:10.37,2013-03-05 21:08:00,
2013-03-05 15:13:00,43.5,26.1,30.15,WNW,292,18.4,18.4,50,0.00,BKN,OVC,0.00,200.0,WeatherDisplay:10.37,2013-03-05 21:13:00,
2013-03-05 15:18:00,43.9,26.9,30.15,WNW,292,22.3,22.3,51,0.00,BKN,OVC,0.00,100.0,WeatherDisplay:10.37,2013-03-05 21:18:00,
2013-03-05 15:23:00,43.0,25.6,30.15,WNW,292,21.9,21.9,50,0.00,BKN,OVC,0.00,100.0,WeatherDisplay:10.37,2013-03-05 21:23:00,
2013-03-05 15:28:00,43.3,26.4,30.15,WNW,292,17.3,17.3,51,0.00,BKN,OVC,0.00,0.0,WeatherDisplay:10.37,2013-03-05 21:28:00,
2013-03-05 15:33:00,43.5,26.6,30.15,WNW,292,17.6,17.6,51,0.00,BKN,OVC,0.00,100.0,WeatherDisplay:10.37,2013-03-05 21:33:00,
2013-03-05 15:38:00,43.0,25.6,30.15,WNW,292,24.2,24.2,50,0.00,BKN,OVC,0.00,100.0,WeatherDisplay:10.37,2013-03-05 21:38:00,
2013-03-05 15:43:00,42.8,25.4,30.15,WNW,292,21.9,21.9,50,0.00,BKN,OVC,0.00,100.0,WeatherDisplay:10.37,2013-03-05 21:43:00,
2013-03-05 15:48:00,42.8,25.4,30.15,WNW,292,18.4,18.4,50,0.00,BKN,OVC,0.00,100.0,WeatherDisplay:10.37,2013-03-05 21:48:00,
2013-03-05 15:53:00,43.3,25.9,30.15,WNW,292,19.9,19.9,50,0.00,BKN,OVC,0.00,100.0,WeatherDisplay:10.37,2013-03-05 21:53:00,
2013-03-05 15:58:00,43.7,26.7,30.15,WNW,292,12.7,12.7,51,0.00,BKN,OVC,0.00,100.0,WeatherDisplay:10.37,2013-03-05 21:58:00,
2013-03-05 16:03:00,43.2,25.8,30.15,West,270,17.3,17.8,50,0.00,CLR,OVC,0.00,0.0,WeatherDisplay:10.37,2013-03-05 22:03:00,
2013-03-05 16:08:00,43.7,26.3,30.15,West,270,18.4,18.4,50,0.00,CLR,OVC,0.00,0.0,WeatherDisplay:10.37,2013-03-05 22:08:00,
2013-03-05 16:13:00,43.2,25.8,30.18,WNW,292,26.5,26.5,50,0.00,CLR,OVC,0.00,0.0,WeatherDisplay:10.37,2013-03-05 22:13:00,
2013-03-05 16:18:00,42.8,25.4,30.18,WNW,292,17.3,17.3,50,0.00,CLR,OVC,0.00,0.0,WeatherDisplay:10.37,2013-03-05 22:18:00,
2013-03-05 16:23:00,42.4,25.1,30.18,WNW,292,16.1,16.1,50,0.00,CLR,OVC,0.00,0.0,WeatherDisplay:10.37,2013-03-05 22:23:00,
2013-03-05 16:28:00,42.3,24.9,30.15,WNW,292,20.7,20.7,50,0.00,CLR,OVC,0.00,0.0,WeatherDisplay:10.37,2013-03-05 22:28:00,
2013-03-05 16:33:00,42.8,25.4,30.15,WNW,292,17.3,17.3,50,0.00,CLR,OVC,0.00,0.0,WeatherDisplay:10.37,2013-03-05 22:33:00,
2013-03-05 16:38:00,43.0,26.1,30.15,NNW,338,19.6,19.6,51,0.00,CLR,OVC,0.00,0.0,WeatherDisplay:10.37,2013-03-05 22:38:00,
2013-03-05 16:43:00,43.0,25.6,30.18,WNW,292,21.9,21.9,50,0.00,CLR,OVC,0.00,0.0,WeatherDisplay:10.37,2013-03-05 22:43:00,
2013-03-05 16:48:00,43.0,25.6,30.18,West,270,23.0,23.0,50,0.00,CLR,OVC,0.00,0.0,WeatherDisplay:10.37,2013-03-05 22:48:00,
2013-03-05 16:53:00,42.8,25.4,30.18,NW,315,23.0,23.0,50,0.00,CLR,OVC,0.00,0.0,WeatherDisplay:10.37,2013-03-05 22:53:00,
2013-03-05 16:58:00,43.0,25.6,30.18,WNW,292,17.6,17.6,50,0.00,CLR,OVC,0.00,0.0,WeatherDisplay:10.37,2013-03-05 22:58:00,
2013-03-05 17:03:00,42.6,25.7,30.18,WNW,292,23.0,23.0,51,0.00,CLR,OVC,0.00,0.0,WeatherDisplay:10.37,2013-03-05 23:03:00,
2013-03-05 17:08:00,41.4,24.6,30.18,WNW,292,17.6,17.6,51,0.00,CLR,OVC,0.00,0.0,WeatherDisplay:10.37,2013-03-05 23:08:00,
2013-03-05 17:13:00,42.4,25.6,30.21,WNW,292,15.0,15.0,51,0.00,CLR,OVC,0.00,0.0,WeatherDisplay:10.37,2013-03-05 23:13:00,
2013-03-05 17:18:00,42.8,25.9,30.21,WNW,292,12.7,12.7,51,0.00,CLR,OVC,0.00,0.0,WeatherDisplay:10.37,2013-03-05 23:18:00,
2013-03-05 17:23:00,42.3,25.4,30.21,NNW,338,15.0,15.2,51,0.00,CLR,OVC,0.00,0.0,WeatherDisplay:10.37,2013-03-05 23:23:00,
2013-03-05 17:28:00,42.3,25.9,30.18,NW,315,16.1,16.1,52,0.00,CLR,OVC,0.00,0.0,WeatherDisplay:10.37,2013-03-05 23:28:00,
2013-03-05 17:33:00,41.9,25.1,30.18,WNW,292,19.6,19.6,51,0.00,CLR,OVC,0.00,0.0,WeatherDisplay:10.37,2013-03-05 23:33:00,
2013-03-05 17:38:00,41.9,25.5,30.18,WNW,292,15.0,15.0,52,0.00,CLR,OVC,0.00,0.0,WeatherDisplay:10.37,2013-03-05 23:38:00,
2013-03-05 17:43:00,41.2,24.9,30.18,WNW,292,19.6,19.6,52,0.00,CLR,OVC,0.00,0.0,WeatherDisplay:10.37,2013-03-05 23:43:00,
2013-03-05 17:48:00,40.8,24.5,30.18,WNW,292,18.5,18.5,52,0.00,CLR,OVC,0.00,0.0,WeatherDisplay:10.37,2013-03-05 23:48:00,
2013-03-05 17:53:00,40.6,24.8,30.18,WNW,292,13.8,13.8,53,0.00,CLR,OVC,0.00,0.0,WeatherDisplay:10.37,2013-03-05 23:53:00,
2013-03-05 17:58:00,40.1,24.3,30.18,WNW,292,17.3,17.3,53,0.00,CLR,OVC,0.00,0.0,WeatherDisplay:10.37,2013-03-05 23:58:00,
2013-03-05 18:03:00,39.7,24.0,30.18,WNW,292,17.3,17.3,53,0.00,CLR,OVC,0.00,0.0,WeatherDisplay:10.37,2013-03-06 00:03:00,
2013-03-05 18:08:00,39.0,23.8,30.18,WNW,292,15.0,15.0,54,0.00,CLR,OVC,0.00,0.0,WeatherDisplay:10.37,2013-03-06 00:08:00,
2013-03-05 18:13:00,38.3,23.5,30.18,WNW,292,10.4,10.4,55,0.00,CLR,OVC,0.00,0.0,WeatherDisplay:10.37,2013-03-06 00:13:00,
2013-03-05 18:18:00,38.1,23.8,30.18,WNW,292,12.7,12.7,56,0.00,CLR,OVC,0.00,0.0,WeatherDisplay:10.37,2013-03-06 00:18:00,
2013-03-05 18:23:00,37.9,23.6,30.18,WNW,292,13.5,13.5,56,0.00,CLR,OVC,0.00,0.0,WeatherDisplay:10.37,2013-03-06 00:23:00,
2013-03-05 18:28:00,37.8,23.5,30.18,WNW,292,17.3,17.3,56,0.00,CLR,OVC,0.00,0.0,WeatherDisplay:10.37,2013-03-06 00:28:00,
2013-03-05 18:33:00,37.6,23.3,30.18,WNW,292,16.1,16.1,56,0.00,CLR,OVC,0.00,0.0,WeatherDisplay:10.37,2013-03-06 00:33:00,
2013-03-05 18:38:00,37.2,23.4,30.18,WNW,292,12.7,12.7,57,0.00,CLR,OVC,0.00,0.0,WeatherDisplay:10.37,2013-03-06 00:38:00,
2013-03-05 18:43:00,36.9,23.4,30.18,NW,315,10.0,10.0,58,0.00,CLR,OVC,0.00,0.0,WeatherDisplay:10.37,2013-03-06 00:43:00,
2013-03-05 18:48:00,36.5,23.1,30.18,NW,315,11.5,11.5,58,0.00,CLR,OVC,0.00,0.0,WeatherDisplay:10.37,2013-03-06 00:48:00,
2013-03-05 18:53:00,36.1,23.2,30.18,NNW,338,9.2,9.2,59,0.00,CLR,OVC,0.00,0.0,WeatherDisplay:10.37,2013-03-06 00:53:00,
2013-03-05 18:58:00,35.8,22.8,30.18,WNW,292,9.7,9.7,59,0.00,CLR,OVC,0.00,0.0,WeatherDisplay:10.37,2013-03-06 00:58:00,
2013-03-05 19:03:00,35.8,22.8,30.18,NW,315,13.8,13.8,59,0.00,CLR,OVC,0.00,0.0,WeatherDisplay:10.37,2013-03-06 01:03:00,
2013-03-05 19:08:00,35.4,22.9,30.18,NNW,338,9.2,9.2,60,0.00,CLR,OVC,0.00,0.0,WeatherDisplay:10.37,2013-03-06 01:08:00,
2013-03-05 19:13:00,35.2,22.7,30.21,NNW,338,10.4,10.4,60,0.00,CLR,OVC,0.00,0.0,WeatherDisplay:10.37,2013-03-06 01:13:00,
2013-03-05 19:18:00,35.1,22.6,30.21,NNW,338,9.2,9.2,60,0.00,CLR,OVC,0.00,0.0,WeatherDisplay:10.37,2013-03-06 01:18:00,
2013-03-05 19:23:00,34.5,22.4,30.21,NNW,338,6.9,6.9,61,0.00,CLR,OVC,0.00,0.0,WeatherDisplay:10.37,2013-03-06 01:23:00,
2013-03-05 19:28:00,34.5,22.4,30.21,WNW,292,8.5,8.5,61,0.00,CLR,OVC,0.00,0.0,WeatherDisplay:10.37,2013-03-06 01:28:00,
2013-03-05 19:34:00,34.2,22.5,30.21,WNW,292,5.8,5.8,62,0.00,CLR,OVC,0.00,0.0,WeatherDisplay:10.37,2013-03-06 01:34:00,
2013-03-05 19:39:00,34.0,22.3,30.21,WNW,292,8.5,8.5,62,0.00,CLR,OVC,0.00,0.0,WeatherDisplay:10.37,2013-03-06 01:39:00,
2013-03-05 19:44:00,34.0,22.3,30.21,NNW,338,10.4,10.4,62,0.00,CLR,OVC,0.00,0.0,WeatherDisplay:10.37,2013-03-06 01:44:00,
2013-03-05 19:49:00,33.8,22.1,30.21,NNW,338,8.1,8.1,62,0.00,CLR,OVC,0.00,0.0,WeatherDisplay:10.37,2013-03-06 01:49:00,